Regional Weather Roundup
Issued by NWS Newport/Morehead, NC

Current Version | Previous Version | Text Only | Print | Product List | Glossary Off
Versions: 1 2 3 4 5 6 7 8 9 10 11 12 13 14 15 16 17 18 19 20 21 22 23 24 25 26 27 28 29 30 31 32 33 34 35 36 37 38 39 40 41 42 43 44 45 46 47 48 49 50
000 ASUS42 KMHX 200510 RWRMHX WEATHER ROUNDUP FOR EASTERN NORTH CAROLINA NATIONAL WEATHER SERVICE NEWPORT/MOREHEAD CITY NC 100 AM EDT SAT SEP 20 2014 NOTE: "FAIR" INDICATES FEW OR NO CLOUDS BELOW 12,000 FEET WITH NO SIGNIFICANT WEATHER AND/OR OBSTRUCTIONS TO VISIBILITY NCZ015>017-031-032-045>047-102-103-200600- NORTH COAST CITY SKY/WX TMP DP RH WIND PRES REMARKS EDENTON CLEAR 61 59 93 CALM 30.24S ELIZABETH CITY CLEAR 66 60 81 N6 30.24S KITTY HAWK PTCLDY 72 60 67 NE8 30.21S MANTEO MOCLDY 71 61 70 NE10G17 30.22S $$ NCZ045>047-081-094-103-104-200600- CENTRAL COAST CITY SKY/WX TMP DP RH WIND PRES REMARKS FRISCO CLOUDY 71 64 78 NE10G20 30.18F SWANQUARTER N/A 68 N/A N/A NE8 30.18S $$ NCZ095-097-098-100-101-200600- SOUTHERN COAST CITY SKY/WX TMP DP RH WIND PRES REMARKS BEAUFORT MOCLDY 72 63 73 NE9 30.18S CEDAR ISLAND N/A 73 N/A N/A NE22 30.21F JACKSONVILLE MOCLDY 67 60 78 NE8 30.18S NEWPORT NOT AVBL PINEY ISLAND MOCLDY 75 64 68 NE16 30.18S WILMINGTON CLOUDY 68 62 81 NE9 30.16F $$ NCZ011>013-027>030-043-044-078>080-089-090>093-098-200600- COASTAL PLAIN CITY SKY/WX TMP DP RH WIND PRES REMARKS AHOSKIE CLEAR 59 56 91 CALM 30.25F CLINTON CLEAR 65 61 87 NE3 30.21F ELIZABETHTOWN PTCLDY 65 60 84 CALM 30.19S GOLDSBORO CLEAR 64 63 97 CALM 30.20F GREENVILLE PTCLDY 61 59 94 N3 30.23F HAVELOCK MOCLDY 71 62 73 NE9 30.20S KENANSVILLE PTCLDY 64 58 81 CALM 30.22F KINSTON PTCLDY 63 59 86 N3 30.22S NEW BERN MOCLDY 69 60 73 NE9 30.21S RICHLANDS MOCLDY 64 57 77 NE8 30.19F ROANOKE RAPIDS NOT AVBL ROCKY MOUNT PTCLDY 61 57 87 CALM 30.24S WASHINGTON PTCLDY 63 58 84 NE5 30.22S WHITEVILLE PTCLDY 67 61 80 NE5 30.17S $$ AMZ130-135-150-152-154-156-158-170-250-252-270-ANZ085-086-088-633-658-670-200600- MARINE OBSERVATIONS STATION/POSITION TIME TEMP WIND PRES WAVE SWELL AIR SEA DIR/SP/G HT/PER HT/PER (UTC) (F) (DEG/KT/KT) (MB) (FT/S) (FT/S) CHESAPEAKE LIGHT 0400 71 60/ 17/ 18 1025.1 BUOY 44014 0500 74 76 50/ 17/ 21 1023.0 4/ 8 2/ 8 DUCK 0500 72 1022.7 2E DUCK 0500 N/A 5/ 6 OREGON INLET 0500 72 1022.7 BUOY 44095 0500 75 N/A 6/ 6 2/11 20E OREGON INLET NOT AVBL HATTERAS CG 0500 73 1022.3 DIAMOND BUOY 0500 76 50/ 17/ 23 1020.9 6/ 7 2/ 9 CAPE LOOKOUT 0500 74 40/ 19/ 22 1021.2 BEAUFORT LAB 0500 72 1021.2 30 SE NEW RIVER 0500 79 82 70/ 21/ 25 1020.4 7/ 7 2/11 5 SE WRIGHTSVILL 0400 73 80 70/ 19/ 23 N/A BUOY 41002 0446 79 82 90/ 21/ 27 1017.7 8/ 8 BUOY 41004 0500 76 82 70/ 21/ 25 1017.6 8/ 6 2/11 $$

USA.gov is the U.S. government's official web portal to all federal, state and local government web resources and services.